Location: Blanot
(47.1713°N, 4.2340°E)
Time: 19:55:14
(UTC+00:00)

Cosmos 2016 Rocket - Pass Details

Date: 14 July 2020
Orbit: 948 x 999 km, 83.0° (Epoch: 14 August)

Event Time Altitude Azimuth Distance (km) Brightness Sun altitude
Exits shadow 01:53:41 23° 203° (SSW) 1,910 4.9 -15.7°
Maximum altitude 01:57:38 67° 281° (W) 1,040 4.1 -15.4°
Drops below altitude 10° 02:03:52 10° 4° (N) 2,732 7.3 -14.8°
Sets 02:06:26 0° 8° (N) 3,691 8.3 -14.6°
